Crescent City, CA

7:14 AM PST on February 27, 2017 (GMT -0800)
McNamara

Weather History for KCEC - January, 2014

Change the Weather History Date:

Wednesday, January 29, 2014

  Actual Average Record
Temperature  
Mean Temperature 51 °F 48 °F  
Max Temperature 54 °F 54 °F 70 °F (1962)
Min Temperature 47 °F 41 °F 25 °F (1980)
Degree Days  
Heating Degree Days 14 17  
Month to date heating degree days 443 493  
Since 1 July heating degree days 2680 2649  
Cooling Degree Days 0 0  
Month to date cooling degree days 0 0  
Year to date cooling degree days 0 0  
Moisture  
Dew Point 51 °F    
Average Humidity 95    
Maximum Humidity 100    
Minimum Humidity 89    
Precipitation  
Precipitation 0.66 in 0.25 in 2.29 in (1958)
Month to date precipitation 2.06 9.87  
Year to date precipitation 2.06 9.87  
Since 1 July precipitation 11.05  
Snow  
Snow 0.00 in - - ()
Month to date snowfall 0.0  
Since 1 July snowfall 0.0  
Snow Depth 0.00 in    
Sea Level Pressure  
Sea Level Pressure 30.12 in    
Wind  
Wind Speed 6 mph (South)    
Max Wind Speed 18 mph    
Max Gust Speed 23 mph    
Visibility 4 miles    
Events Rain    
T = Trace of Precipitation, MM = Missing Value Source: NWS Daily Summary

Daily Weather History Graph

Daily Weather History Graph

Search for Another Location

Airport or City:

Trip Planner

Search our weather history database for the weather conditions in past years. The results will help you decide how hot, cold, wet, or windy it might be!

Date:

Astronomy

Jan. 29, 2014 Rise Set
Actual Time 7:32 AM PST 5:28 PM PST
Civil Twilight 7:02 AM PST 5:58 PM PST
Nautical Twilight 6:28 AM PST 6:31 PM PST
Astronomical Twilight 5:56 AM PST 7:04 PM PST
Moon 6:13 AM PST (1/29) 4:35 PM PST (1/29)
Length of Visible Light 10h 56m
Length of Day
9h 56m
Waning Crescent, 2% of the Moon is Illuminated
Jan 29
Waning Crescent
Jan 30
New
Feb 6
First Quarter
Feb 14
Full
Feb 22
Last Quarter

Hourly Weather History & Observations

Time (PST) Temp. Dew Point Humidity Pressure Visibility Wind Dir Wind Speed Gust Speed Precip Events Conditions
12:13 AM 53.1 °F 52.0 °F 96% 30.15 in 2.5 mi SSE 16.1 mph - 0.02 in Rain Rain
12:32 AM 53.1 °F 52.0 °F 96% 30.14 in 3.0 mi SSE 15.0 mph - 0.04 in Rain Light Rain
12:56 AM 52.0 °F 52.0 °F 100% 30.15 in 2.5 mi SSE 15.0 mph - 0.07 in Rain Rain
1:18 AM 53.1 °F 52.0 °F 96% 30.14 in 3.0 mi SSE 12.7 mph - 0.03 in Rain Light Rain
1:56 AM 53.1 °F 52.0 °F 96% 30.13 in 2.5 mi SSE 16.1 mph - 0.08 in Rain Light Rain
2:24 AM 53.1 °F 52.0 °F 96% 30.12 in 3.0 mi SSE 13.8 mph 23.0 mph 0.04 in Rain Light Rain
2:56 AM 53.1 °F 52.0 °F 96% 30.12 in 3.0 mi SSE 13.8 mph - 0.05 in Rain Light Rain
3:05 AM 53.1 °F 52.0 °F 96% 30.11 in 2.0 mi SSE 16.1 mph - 0.02 in Rain Rain
3:13 AM 53.1 °F 52.0 °F 96% 30.11 in 1.8 mi SSE 15.0 mph - 0.05 in Rain Rain
3:25 AM 53.1 °F 52.0 °F 96% 30.11 in 2.0 mi SSE 15.0 mph - 0.07 in Rain Light Rain
3:52 AM 51.8 °F 51.8 °F 100% 30.12 in 1.5 mi South 8.1 mph - 0.13 in Rain Rain
3:56 AM 52.0 °F 52.0 °F 100% 30.13 in 1.5 mi South 10.4 mph - 0.14 in Rain Rain
4:29 AM 52.0 °F 52.0 °F 100% 30.11 in 2.0 mi South 6.9 mph - 0.06 in Rain Light Rain
4:53 AM 51.8 °F 51.8 °F 100% 30.12 in 1.5 mi SSW 6.9 mph - 0.10 in Rain Rain
4:56 AM 52.0 °F 52.0 °F 100% 30.12 in 1.5 mi SSW 5.8 mph - 0.11 in Rain Rain
5:12 AM 52.0 °F 52.0 °F 100% 30.12 in 2.5 mi SSW 4.6 mph - 0.03 in Rain Light Rain
5:21 AM 52.0 °F 52.0 °F 100% 30.12 in 3.0 mi SW 5.8 mph - 0.04 in Rain Light Rain
5:28 AM 52.0 °F 52.0 °F 100% 30.11 in 1.8 mi SSW 4.6 mph - 0.05 in Rain Rain
5:37 AM 52.0 °F 52.0 °F 100% 30.11 in 1.8 mi SW 4.6 mph - 0.07 in Rain Light Rain
5:46 AM 52.0 °F 52.0 °F 100% 30.12 in 1.8 mi WSW 5.8 mph - 0.09 in Rain Light Rain
5:56 AM 52.0 °F 52.0 °F 100% 30.12 in 1.8 mi SW 4.6 mph - 0.11 in Rain Light Rain
6:30 AM 52.0 °F 52.0 °F 100% 30.12 in 2.5 mi South 4.6 mph - 0.05 in Rain Light Rain
6:47 AM 52.0 °F 52.0 °F 100% 30.12 in 2.5 mi SSE 4.6 mph - 0.06 in Rain Light Rain
6:56 AM 52.0 °F 51.1 °F 97% 30.13 in 3.0 mi SE 6.9 mph - 0.07 in Rain Light Rain
7:56 AM 52.0 °F 52.0 °F 100% 30.13 in 9.0 mi SE 4.6 mph - 0.02 in Rain Light Rain
8:04 AM 52.0 °F 52.0 °F 100% 30.12 in 6.0 mi ESE 4.6 mph - 0.00 in Rain Light Rain
8:44 AM 52.0 °F 52.0 °F 100% 30.14 in 1.8 mi South 4.6 mph - 0.00 in   Overcast
8:56 AM 52.0 °F 52.0 °F 100% 30.14 in 2.0 mi South 3.5 mph - 0.00 in   Overcast
9:25 AM 52.0 °F 51.1 °F 97% 30.17 in 4.0 mi South 5.8 mph - N/A   Overcast
9:56 AM 52.0 °F 51.1 °F 97% 30.17 in 7.0 mi SSE 8.1 mph - N/A   Overcast
10:56 AM 52.0 °F 51.1 °F 97% 30.18 in 7.0 mi SSE 9.2 mph - N/A   Overcast
11:04 AM 53.1 °F 51.1 °F 93% 30.18 in 9.0 mi South 9.2 mph - N/A   Overcast
11:12 AM 53.1 °F 51.1 °F 93% 30.18 in 10.0 mi South 10.4 mph - N/A   Overcast
11:24 AM 53.1 °F 51.1 °F 93% 30.18 in 9.0 mi SSE 10.4 mph - N/A   Overcast
11:36 AM 53.1 °F 52.0 °F 96% 30.18 in 10.0 mi SSE 10.4 mph - N/A   Overcast
11:56 AM 53.1 °F 52.0 °F 96% 30.18 in 5.0 mi South 8.1 mph - N/A   Overcast
12:24 PM 53.1 °F 52.0 °F 96% 30.16 in 10.0 mi SSE 8.1 mph - N/A   Overcast
12:35 PM 53.1 °F 52.0 °F 96% 30.16 in 7.0 mi SSE 9.2 mph - N/A   Overcast
12:44 PM 53.1 °F 52.0 °F 96% 30.16 in 8.0 mi South 9.2 mph - N/A   Overcast
12:56 PM 53.1 °F 52.0 °F 96% 30.16 in 9.0 mi South 9.2 mph - N/A   Overcast
1:13 PM 52.0 °F 51.1 °F 97% 30.15 in 4.0 mi South 8.1 mph - N/A   Overcast
1:25 PM 53.1 °F 51.1 °F 93% 30.15 in 2.5 mi South 8.1 mph - 0.00 in   Overcast
1:37 PM 53.1 °F 52.0 °F 96% 30.14 in 4.0 mi South 6.9 mph - 0.00 in Rain Light Rain
1:56 PM 54.0 °F 53.1 °F 97% 30.14 in 6.0 mi South 8.1 mph - 0.00 in   Overcast
2:07 PM 54.0 °F 53.1 °F 97% 30.13 in 4.0 mi South 6.9 mph - N/A   Overcast
2:46 PM 53.1 °F 52.0 °F 96% 30.12 in 5.0 mi South 6.9 mph - N/A   Mostly Cloudy
2:49 PM 53.1 °F 52.0 °F 96% 30.12 in 5.0 mi South 6.9 mph - N/A   Mostly Cloudy
2:56 PM 53.1 °F 52.0 °F 96% 30.12 in 4.0 mi South 6.9 mph - N/A   Overcast
3:43 PM 53.1 °F 51.1 °F 93% 30.12 in 5.0 mi WSW 8.1 mph - 0.01 in Rain Light Rain
3:56 PM 53.1 °F 51.1 °F 93% 30.12 in 9.0 mi SW 6.9 mph - 0.01 in   Overcast
4:08 PM 53.1 °F 51.1 °F 93% 30.11 in 7.0 mi SW 4.6 mph - N/A   Mostly Cloudy
4:28 PM 52.0 °F 50.0 °F 93% 30.11 in 6.0 mi SW 5.8 mph - N/A   Mostly Cloudy
4:38 PM 52.0 °F 50.0 °F 93% 30.11 in 6.0 mi SW 5.8 mph - N/A   Overcast
4:56 PM 52.0 °F 48.9 °F 89% 30.11 in 7.0 mi West 6.9 mph - N/A   Overcast
5:12 PM 51.1 °F 48.0 °F 89% 30.10 in 8.0 mi West 5.8 mph - N/A   Overcast
5:53 PM 51.8 °F 48.2 °F 88% 30.10 in 5.0 mi West 3.5 mph - N/A   Overcast
5:56 PM 51.1 °F 48.9 °F 92% 30.10 in 4.0 mi WNW 3.5 mph - N/A   Overcast
6:24 PM 51.1 °F 48.0 °F 89% 30.10 in 4.0 mi Calm Calm - N/A   Overcast
6:40 PM 50.0 °F 48.0 °F 93% 30.10 in 3.0 mi West 3.5 mph - N/A   Overcast
6:56 PM 50.0 °F 48.0 °F 93% 30.10 in 2.0 mi West 3.5 mph - N/A   Overcast
7:20 PM 50.0 °F 48.0 °F 93% 30.09 in 4.0 mi Calm Calm - N/A   Overcast
7:56 PM 50.0 °F 48.0 °F 93% 30.10 in 6.0 mi Calm Calm - N/A   Overcast
8:31 PM 50.0 °F 48.0 °F 93% 30.10 in 5.0 mi Calm Calm - N/A   Overcast
8:38 PM 50.0 °F 48.0 °F 93% 30.10 in 6.0 mi Calm Calm - N/A   Overcast
8:56 PM 50.0 °F 48.0 °F 93% 30.11 in 5.0 mi Calm Calm - N/A   Overcast
9:56 PM 48.0 °F 46.0 °F 93% 30.10 in 5.0 mi Calm Calm - N/A   Mostly Cloudy
10:09 PM 46.9 °F 46.0 °F 97% 30.10 in 1.8 mi Calm Calm - N/A   Mostly Cloudy
10:19 PM 48.0 °F 46.0 °F 93% 30.09 in 3.0 mi Calm Calm - N/A   Mostly Cloudy
10:43 PM 48.9 °F 46.9 °F 93% 30.08 in 2.5 mi Calm Calm - N/A   Overcast
10:56 PM 48.0 °F 46.9 °F 96% 30.09 in 2.5 mi Calm Calm - N/A   Overcast
11:20 PM 48.9 °F 46.9 °F 93% 30.08 in 3.0 mi ESE 3.5 mph - N/A   Overcast
11:28 PM 48.9 °F 46.9 °F 93% 30.08 in 2.5 mi Calm Calm - N/A   Overcast
11:37 PM 48.9 °F 46.9 °F 93% 30.08 in 4.0 mi Calm Calm - N/A   Overcast
11:56 PM 48.9 °F 46.9 °F 93% 30.08 in 5.0 mi Calm Calm - N/A   Overcast